Regional Weather Roundup
Issued by NWS Wakefield, VA

Home | Current Version | Previous Version | Text Only | Print | Product List | Glossary Off
Versions: 1 2 3 4 5 6 7 8 9 10 11 12 13 14 15 16 17 18 19 20 21 22 23 24 25 26 27 28 29 30 31 32 33 34 35 36 37 38 39 40 41 42 43 44 45 46 47 48 49 50

000
ASUS41 KAKQ 231815
RWRAKQ

REGIONAL WEATHER ROUNDUP
NATIONAL WEATHER SERVICE WAKEFIELD VA
200 PM EDT FRI JUN 23 2017

Note: "fair" indicates few or no clouds below 12,000 feet with no
significant weather and/or obstructions to visibility. * = Denotes
station may not report precipitation (e.g., rain,snow,etc.),
thunder or fog.

VAZ042-051-052>054-056-231900-
NORTHERN VIRGINIA

CITY           SKY/WX    TMP DP  RH WIND       PRES   REMARKS
WASH NATIONAL  CLOUDY    86  74  67 SW17G24   29.77F
DULLES         CLOUDY    85  73  67 S20G29    29.77F
FORT BELVOIR   CLOUDY    85  72  63 S7G22     29.78F
QUANTICO       CLOUDY    83  75  77 SW10G20   29.80F
FREDERICKSBRG* PTSUNNY   84  75  75 SW13      29.81F
STAFFORD*      PTSUNNY   80  75  84 SW10      29.85F
WARRENTON      CLOUDY    83  71  66 SW12G20   29.79F
CULPEPER*      CLOUDY    82  74  78 SW13G21   29.81S
MANASSAS*      CLOUDY    84  74  71 SW15G22   29.79F
LEESBURG*      CLOUDY    88  77  70 SW13G25   29.77F HX 100
WINCHESTER     PTSUNNY   84  72  65 S15       29.76F
FRONT ROYAL*   PTCLDY    84  70  61 S14G25    29.77S
LURAY*         PTCLDY    82  72  69 SW17G26   29.81S
$$

VAZ048-049-060>072-079>083-231900-
CENTRAL AND SOUTH CENTRAL VIRGINIA

CITY           SKY/WX    TMP DP  RH WIND       PRES   REMARKS
RICHMOND       PTSUNNY   89  74  60 SW16G31   29.85F HX  98
CHESTERFIELD*  MOCLDY    87  75  67 SW14      29.86F HX  96
PETERSBURG*    MOSUNNY   88  72  58 SW12G17   29.87F
HANOVER        PTSUNNY   87  73  62 SW15G23   29.86F
TAPPAHANNOCK*  PTSUNNY   87  71  60 SW12G17   29.84F
QUINTON*       FAIR      87  76  69 SW9G16    29.84F HX  97
CHARLOTTSVILLE LGT RAIN  83  74  74 SW5       29.83F
GORDONSVILLE*  CLOUDY    82  74  76 SW14      29.82F
ORANGE*        CLOUDY    81  73  78 SW13G18   29.82F
LOUISA*        CLOUDY    90  77  66 SW9G16    29.83F HX 102
BUMPASS*       FAIR      84  75  74 SW15      29.84F
FARMVILLE*     MOSUNNY   85  70  59 SW14G20   29.86F
CREWE*         FAIR      85  70  62 SW10G17   29.88F
FORT PICKETT*  FAIR      85  73  67 SW14G20   29.89S
CHASE CITY*    FAIR      86  74  67 SW9       29.89F
CLARKSVILLE*   FAIR      88  73  62 SW15G21   29.89F HX  96
SOUTH HILL*    MOSUNNY   87  75  68 S18G24    29.96S HX  97
LAWRENCEVILLE* FAIR      87  74  66 MISG      29.89F HX  95
EMPORIA*       SUNNY     86  73  66 S13G22    29.91F
$$

VAZ088>098-231900-
SOUTHEAST VIRGINIA

CITY           SKY/WX    TMP DP  RH WIND       PRES   REMARKS
NORFOLK        CLOUDY    89  74  60 SW20G30   29.88F HX  98
VIRGINIA BEACH CLOUDY    86  74  67 SW16G25   29.88F
NORFOLK NAVAL  PTSUNNY   88  74  63 SW15G24   29.89F HX  96
WEST POINT*    CLOUDY    88  74  63 SW15G22   29.86F HX  96
SALUDA*        FAIR      87  76  71 SW10G21   29.84F HX  97
NEWPORT NEWS   CLOUDY    87  74  64 SW17G28   29.86F HX  95
LANGLEY AFB    MOSUNNY   87  76  69 SW22G28   29.86F HX  97
FORT EUSTIS    MOSUNNY   87  76  67 SW14G20   29.84F HX  97
WILLIAMSBURG*  MOSUNNY   90  75  62 W8G22     29.87F HX 100
HR EXEC AP*    FAIR      88  75  66 SW12G22   29.86F HX  97
FRANKLIN*      MOSUNNY   86  75  70 S13G22    29.90F HX  95
US460-WAKEFLD  MOSUNNY   88  74  63 SW12G22   29.87F HX  96
$$

VAZ020-022-025-037-045-231900-
WEST CENTRAL AND SOUTHWEST VIRGINIA

CITY           SKY/WX    TMP DP  RH WIND       PRES   REMARKS
STAUNTON*      MOSUNNY   78  69  73 SW9G21    29.88F
WAYNESBORO*    CLOUDY    78  69  74 SW8G22    29.89S
HOT SPRINGS VA CLOUDY    68  63  83 W23G30    30.01R
LYNCHBURG      LGT RAIN  82  72  71 SW16G22   29.90S
DANVILLE       PTSUNNY   86  72  62 SW17G29   29.90F
SOUTH BOSTON*  FAIR      86  71  60 SW10G17   29.89F
MARTINSVILLE   MOSUNNY   84  71  65 SW9       29.95S
ROANOKE        CLOUDY    83  67  58 SW13G23   29.91F
BLACKSBURG     CLOUDY    79  69  70 SW7       29.99S
DUBLIN*        CLOUDY    79  61  53 W17G31    29.99R
MARION*        CLOUDY    77  67  69 W13G20    30.02F
HILLSVILLE*    CLOUDY    78  65  66 CALM      30.00F
RICHLANDS*     MOCLDY    74  67  80 W12G22    29.99F
WISE*          CLOUDY    75  68  78 SW20G25   29.99F
ABINGDON*      PTSUNNY   78  72  80 W8        29.97F
$$

MDZ021>025-VAZ099-100-231900-
SOUTHERN MARYLAND AND THE DELMARVA PENINSULA

CITY           SKY/WX    TMP DP  RH WIND       PRES   REMARKS
PATUXENT RIVER LGT RAIN  84  74  71 SW10      29.81S
BAY BRIDGE APT PTSUNNY   86  75  70 S10G17    29.77F HX  95
LEONARDTOWN    CLOUDY    82  72  69 SW14      29.83S
DOVER          MOSUNNY   86  82  86 SW24G32   29.74F HX 104
GEORGETOWN     MOSUNNY   87  73  62 SW23G31   29.80F
EASTON         MOSUNNY   88  73  62 SW16G23   29.83F HX  96
CAMBRIDGE      SUNNY     86  75  70 VRB7G18   29.80F HX  95
SALISBURY      MOSUNNY   87  75  67 SW17G25   29.81F HX  96
OCEAN CITY     SUNNY     81  74  79 S12G24    29.83F
WALLOPS ISLAND PTSUNNY   85  76  74 S16       29.84F
ACCOMACK*      CLOUDY    87  74  63 SW22G28   29.85F HX  95
$$

NCZ012>017-030>032-231900-
NORTH CENTRAL AND EASTERN NORTH CAROLINA

CITY           SKY/WX    TMP DP  RH WIND       PRES   REMARKS
ROANOKE RAPIDS FAIR      86  75  70 SW16      29.92F HX  95
RALEIGH        PTSUNNY   88  73  61 SW17G28   29.95F HX  95
ELIZABETH CITY PTSUNNY   85  77  77 SW17G26   29.93F HX  95
AHOSKIE*         N/A     84  77  78 S6        29.92F
EDENTON*       CLOUDY    87  77  71 SW12      29.95F HX  98
CURRITUCK*     PTSUNNY   85  75  71 SW15G21   29.94S
KILL DEVIL HLS PTSUNNY   83  73  71 CALM      29.94F
MANTEO         PTSUNNY   83  74  75 SW16      29.96F
CAPE HATTERAS  CLOUDY    84  76  76 SW12G22   30.00F
TARBORO*       NOT AVBL
GOLDSBORO      PTSUNNY   89  79  71 SW16      29.94F HX 104
WASHINGTON     MOSUNNY  N/A N/A N/A SW14G21   29.96F
GREENVILLE     MOSUNNY   90  75  62 SW15G23   29.97F HX 100
NEW BERN       MOSUNNY   89  76  65 SW14G21   29.97F HX 100
WILMINGTON     MOSUNNY   88  77  69 SW13      29.99F HX 100
$$

VAZ048-231900-
ELSEWHERE

CITY           SKY/WX    TMP DP  RH WIND       PRES   REMARKS
HARRISBURG PA  PTSUNNY   85  73  67 W8G17     29.70F
BALTIMORE      CLOUDY    86  74  67 SW10G20   29.75F
ANNAPOLIS      CLOUDY    87  75  67 SW9G20    29.75F HX  96
ANDREWS AFB    CLOUDY    85  73  66 SW20G26   29.78F
PHILADELPHIA   PTSUNNY   84  72  67 SW15G24   29.74F
HENDERSON NC   MOSUNNY   85  71  63 SW18G25   29.92F
GREENSBORO     PTSUNNY   85  72  65 SW21G28   29.94F
ROCKY MOUNT    SUNNY     88  75  65 SW14      29.93F HX  97
$$

VAZ100-231900-
MARINE

STATION/POSITION TIME  TEMP    WIND        PRES    WAVE   SWELL
                       AIR SEA DIR/SP/G            HT/PER HT/PER
                 (UTC) (F)     (DEG/KT/KT) (MB)    (FT/S) (FT/S)
BRANDYWINE LGT   1742   79     230/ 19/ 22 1008.8F
CAPE MAY NJ      1748   79 72  220/  9/ 12 1008.4F
LEWES DE         1742   86 70  250/ 11/ 20 1008.6F
15NM E FENWICK I 1750   71 69  190/ 17/ 23 1010.1F   3/ 4   2/ 9
OCEAN-CITY-INLET 1748   70 68  210/ 17/ 21 1010.3F
WACHAPREAGUE VA  1748   86 82  200/ 12/ 17 1010.6F
THOMAS POINT MD  1800   83 78  220/ 15/ 19   N/A
GOOSES REEF MD   1800   84 79  270/ 16/ 21 1009.0    2/ 3
COVE POINT MD    1748   84     230/ 14/ 22 1009.7F
SOLOMONS ISLAND  1742   82 77  240/ 13/ 21   N/A
PINEY POINT MD   1748          260/ 11/ 15   N/A
POTOMAC MD       1800   82 78  250/ 14/ 17 1008.8    2/ 3
CAMBRIDGE MD     1748   87 81              1009.7F
LEWISETTA VA     1748   83 80  250/ 18/ 26 1009.7F
RAPPAHANNOCK LGT 1748          190/ 18/ 19 1011.4F
STINGRAY PT      1750   83     250/ 16/ 17 1011.1F
YORK RVR RNG VA  1748   84     240/ 19/ 26 1011.1F
YORKTOWN VA      1748   85 77  230/ 18/ 23 1010.5F
JAMESTOWN VA     1800   85 83  230/ 16/ 21   N/A     1/ 2
DOMINION TERM VA 1748   82     220/ 16/ 18 1011.7F
KIPTOPEKE VA     1748      74  230/  8/ 11   N/A
CHES BAY BRIDGE  1748   83 75  240/ 20/ 24 1011.3F
CAPE HENRY VA    1748   86     220/ 10/ 18   N/A
WILLOUBY STN VA  1748   83     230/ 22/ 26 1011.3F
S CRANEY ISL VA  1748   85     220/ 13/ 19 1011.8F
CAPE HENRY BUOY  1730      73                N/A     2/ 8
1ST LANDING BUOY 1800   83 75              1011.6    1/ 2
CAPE CHARLES BUO 1751      68                N/A     2/ 9
64NM E OF VA BCH 1750   75 73  210/ 14/ 16 1013.8F   3/ 8   2/ 8
DUCK PIER NC     1748   82 65  200/ 13/ 18 1013.2F
44100 DUCK FRF   1705      68                N/A     2/ 8
OREGON INLET NC  1742   81 81  190/ 18/ 22 1014.5F
HATTERAS NC      1748   81 79  210/ 12/ 16 1015.5F
DIAMOND SHLS NC  1750   80 81  220/ 17/ 19 1015.8F   3/ 8   2/ 8
CAPE LOOKOUT NC  1800   83     210/ 15/ 20 1015.7F
$$



USA.gov is the U.S. government's official web portal to all federal, state and local government web resources and services.